User: anonymous   Login
Location: Calberlah
(52.4230°N, 10.6240°E)
Time: 04:24:17
(UTC+00:00)
Language:

Cosmos 2341 Rocket - Orbit

View from above orbital plane
View from above orbital plane
View from above satellite
View from above satellite

Ground track
Ground track

The orbit data is extracted from the following two-line orbital elements,

1 24773U 97017B   25198.51837569  .00000096  00000-0  85935-4 0  9995
2 24773  82.9229 344.8770 0024537  12.9358  53.6511 13.73929686415958
Epoch (UTC): 17 July 2025 12:26:27
Eccentricity: 0.0024537
inclination: 82.9229°
perigee height: 967 km
apogee height: 1003 km
right ascension of ascending node: 344.8770°
argument of perigee: 12.9358°
revolutions per day: 13.73929686
mean anomaly at epoch: 53.6511°
orbit number at epoch: 41595

The dashed part of the orbit path shows where the satellite is in the earth's shadow,  

DLR